User: anonymous   Login
Location: Unspecified
(0.0000°N, 0.0000°E)
Time: 02:00:25
(UTC+00:00)
Language:

STARLINK-31114 - Orbit

View from above orbital plane
View from above orbital plane
View from above satellite
View from above satellite

Ground track
Ground track

The orbit is defined by the following mean orbital elements,

1 58766U          26145.33799882 +.00000000 +00000-0 +34895-4 0 00005
2 58766  53.1614  15.6760 0001125  90.4973 269.6157 15.30194969    03
Epoch (UTC): 25 May 2026 08:06:43
Eccentricity: 0.0001125
inclination: 53.1614°
perigee height: 474 km
apogee height: 476 km
right ascension of ascending node: 15.6760°
argument of perigee: 90.4973°
revolutions per day: 15.30194969
mean anomaly at epoch: 269.6157°

The dashed part of the orbit path shows where the satellite is in the earth's shadow,  

DLR